DW4524 Weather Reports


Display with metric or nautical units.
time (UTC)temp
F
wind
direction
speed
MPH
gust
MPH
rain 1hr
in
rain 24hr
in
rain mn
in
humidity
%
barometer
mb
20260507161901 56 286 1.0 7.0 0.01 0.42 0.02 29 1017.4
20260507161402 55 272 3.0 7.0 0.01 0.42 0.02 29 1017.5
20260507160401 55 245 0.0 6.0 0.01 0.42 0.02 30 1017.6
20260507155901 55 225 1.0 3.0 0.01 0.42 0.02 32 1017.6
20260507155401 54 222 1.0 5.0 0.01 0.41 0.01 29 1017.7
20260507154901 54 302 1.0 5.0 0.01 0.41 0.01 30 1017.7
20260507153902 53 196 2.0 6.0 0.01 0.41 0.01 33 1017.8
20260507153402 53 227 1.0 3.0 0.01 0.41 0.01 34 1017.8
20260507152901 52 273 2.0 5.0 0.01 0.41 0.01 35 1017.8
20260507151901 51 250 2.0 7.0 0.01 0.41 0.01 36 1017.7
20260507150902 50 257 2.0 6.0 0.01 0.41 0.01 37 1017.8
20260507150402 50 286 3.0 6.0 0.01 0.41 0.01 38 1017.9
20260507145901 50 210 2.0 6.0 0.01 0.41 0.01 40 1017.8
20260507145401 49 250 2.0 5.0 0.00 0.40 0.00 40 1017.7
20260507144902 49 265 1.0 5.0 0.00 0.40 0.00 41 1017.8
20260507143901 48 306 1.0 3.0 0.00 0.40 0.00 43 1017.9
20260507143402 48 305 2.0 5.0 0.00 0.40 0.00 45 1017.8
20260507142902 47 310 1.0 3.0 0.00 0.40 0.00 46 1017.9
20260507142402 47 324 1.0 3.0 0.00 0.40 0.00 46 1017.8
20260507141902 47 314 0.0 2.0 0.00 0.40 0.00 45 1017.8
20260507140403 46 24 0.0 2.0 0.00 0.40 0.00 46 1017.8
20260507135401 46 338 0.0 1.0 0.00 0.40 0.00 47 1017.8
20260507134402 44 106 0.0 1.0 0.00 0.40 0.00 49 1017.7
20260507133902 43 6 0.0 3.0 0.00 0.40 0.00 49 1017.7
20260507133402 42 349 0.0 2.0 0.00 0.40 0.00 50 1017.6
20260507132901 41 63 0.0 2.0 0.00 0.40 0.00 53 1017.5
20260507132402 39 12 1.0 3.0 0.00 0.40 0.00 55 1017.4
20260507131901 37 30 0.0 3.0 0.00 0.40 0.00 57 1017.3
20260507131401 37 346 0.0 1.0 0.00 0.40 0.00 58 1017.4
20260507130902 36 77 0.0 2.0 0.00 0.40 0.00 59 1017.4
20260507130402 36 42 0.0 2.0 0.00 0.40 0.00 60 1017.4
20260507125901 35 75 0.0 2.0 0.00 0.40 0.00 60 1017.3
20260507125402 35 76 0.0 2.0 0.00 0.40 0.00 60 1017.3
20260507124901 35 51 0.0 2.0 0.00 0.40 0.00 60 1017.2
20260507124402 35 32 0.0 3.0 0.00 0.40 0.00 59 1017.1
20260507123902 34 52 1.0 3.0 0.00 0.40 0.00 59 1017.1
20260507123402 34 42 0.0 2.0 0.00 0.40 0.00 59 1017.1
20260507122902 34 53 0.0 3.0 0.00 0.40 0.00 59 1017.1
20260507122401 34 62 0.0 0.0 0.00 0.40 0.00 60 1017.0
20260507120902 34 79 0.0 2.0 0.00 0.40 0.00 60 1016.9
20260507115902 33 59 0.0 1.0 0.00 0.40 0.00 61 1016.9
20260507114902 33 74 0.0 1.0 0.00 0.40 0.00 60 1016.9
20260507114402 33 72 0.0 2.0 0.00 0.40 0.00 60 1017.0
20260507113901 33 307 0.0 2.0 0.00 0.40 0.00 60 1017.1
20260507113402 33 91 0.0 1.0 0.00 0.40 0.00 59 1017.1
20260507112402 33 57 0.0 0.0 0.00 0.40 0.00 59 1017.0
20260507111402 33 76 0.0 1.0 0.00 0.40 0.00 59 1017.0
20260507110402 33 73 0.0 1.0 0.00 0.40 0.00 60 1017.1
20260507105902 33 75 0.0 2.0 0.00 0.40 0.00 60 1016.9
20260507104902 33 45 0.0 1.0 0.00 0.40 0.00 60 1016.8
20260507104402 33 79 0.0 2.0 0.00 0.40 0.00 60 1016.9
20260507103902 33 77 0.0 2.0 0.00 0.40 0.00 60 1016.9
20260507102902 33 70 0.0 2.0 0.00 0.40 0.00 61 1016.9
20260507101402 33 83 0.0 2.0 0.00 0.40 0.00 61 1017.1
20260507100902 33 100 0.0 2.0 0.00 0.40 0.00 61 1017.2
20260507100402 33 85 0.0 0.0 0.00 0.40 0.00 61 1017.2
20260507095902 32 80 0.0 0.0 0.00 0.40 0.00 62 1017.2
20260507095402 32 35 0.0 0.0 0.00 0.40 0.00 63 1017.2
20260507094902 32 44 0.0 0.0 0.00 0.40 0.00 64 1017.2
20260507094403 32 70 0.0 0.0 0.00 0.40 0.00 64 1017.1
20260507093902 32 80 0.0 0.0 0.00 0.40 0.00 64 1017.1
20260507093402 32 60 0.0 1.0 0.00 0.40 0.00 65 1017.1
20260507092902 32 68 0.0 1.0 0.00 0.40 0.00 65 1017.2
20260507092402 32 80 0.0 0.0 0.00 0.40 0.00 66 1017.2
20260507091902 31 86 0.0 0.0 0.00 0.40 0.00 67 1017.2
20260507090402 30 86 0.0 0.0 0.00 0.40 0.00 73 1017.4
20260507085903 30 86 0.0 0.0 0.00 0.40 0.00 74 1017.6
20260507085402 30 86 0.0 0.0 0.00 0.40 0.00 74 1017.5
20260507084903 30 52 0.0 0.0 0.00 0.40 0.00 75 1017.5
20260507084402 30 79 0.0 0.0 0.00 0.40 0.00 76 1017.5
20260507083902 30 82 0.0 0.0 0.00 0.40 0.00 76 1017.5
20260507082903 30 80 0.0 0.0 0.00 0.40 0.00 79 1017.4
20260507082402 30 92 0.0 0.0 0.00 0.40 0.00 81 1017.6
20260507081902 30 78 0.0 0.0 0.00 0.40 0.00 83 1017.6
20260507081402 29 76 0.0 0.0 0.00 0.40 0.00 86 1017.6
20260507080902 29 82 0.0 0.0 0.00 0.40 0.00 87 1017.6
20260507080402 28 76 0.0 0.0 0.00 0.40 0.00 89 1017.7
20260507075902 28 276 0.0 0.0 0.00 0.40 0.00 89 1017.8
20260507075402 28 282 0.0 0.0 0.00 0.40 0.00 88 1017.8
20260507074903 28 85 0.0 0.0 0.00 0.40 0.00 89 1017.7
20260507074403 28 85 0.0 0.0 0.00 0.40 0.00 90 1017.8
20260507073903 28 85 0.0 0.0 0.00 0.40 0.00 91 1017.9
20260507073403 28 88 0.0 0.0 0.00 0.40 0.00 91 1017.9
20260507072902 28 102 0.0 0.0 0.00 0.40 0.00 92 1018.1
20260507072402 28 102 0.0 0.0 0.00 0.40 0.00 93 1018.0
20260507071902 28 86 0.0 0.0 0.00 0.40 0.00 93 1018.0
20260507071403 27 12 0.0 0.0 0.00 0.40 0.00 93 1018.1
20260507070903 27 87 0.0 0.0 0.00 0.40 0.00 94 1017.9
20260507070403 27 82 0.0 1.0 0.00 0.40 0.00 93 1018.0
20260507065402 27 82 0.0 0.0 0.20 0.40 0.00 93 1018.0
20260507064403 27 82 0.0 0.0 0.20 0.40 0.00 93 1018.1
20260507063903 27 82 0.0 0.0 0.20 0.40 0.00 93 1018.2
20260507063403 27 82 0.0 0.0 0.20 0.40 0.00 93 1018.1
20260507061903 28 82 0.0 0.0 0.20 0.40 0.00 93 1018.0
20260507061402 28 82 0.0 0.0 0.20 0.40 0.00 93 1018.0
20260507060902 29 82 0.0 0.0 0.20 0.40 0.00 93 1018.0
20260507055902 29 77 0.0 1.0 0.00 0.35 0.20 93 1018.1
20260507055403 29 84 0.0 1.0 0.00 0.35 0.20 93 1017.9
20260507054903 29 84 0.0 0.0 0.00 0.35 0.20 93 1017.9
20260507053903 29 84 0.0 0.0 0.00 0.35 0.20 92 1017.8
20260507053403 29 84 0.0 1.0 0.00 0.35 0.20 92 1017.9
20260507052902 30 94 0.0 1.0 0.00 0.35 0.20 92 1017.9
20260507052403 30 86 0.0 0.0 0.00 0.35 0.20 92 1017.8
20260507051403 30 107 0.0 0.0 0.00 0.35 0.20 92 1017.7
20260507050903 30 105 0.0 0.0 0.00 0.35 0.20 92 1017.8
20260507050402 30 82 0.0 2.0 0.00 0.35 0.20 92 1017.6
20260507045402 30 72 0.0 3.0 0.00 0.35 0.20 92 1017.7
20260507044403 31 76 1.0 2.0 0.00 0.35 0.20 91 1017.7
20260507043903 31 233 0.0 1.0 0.00 0.35 0.20 91 1017.6
20260507043403 31 245 0.0 2.0 0.00 0.35 0.20 91 1017.6
20260507041403 31 240 0.0 0.0 0.00 0.35 0.20 91 1017.8
20260507040903 31 78 0.0 0.0 0.00 0.35 0.20 90 1017.8
20260507040403 31 79 0.0 0.0 0.00 0.35 0.20 90 1017.8
20260507035903 30 81 0.0 0.0 0.00 0.35 0.20 90 1017.8
20260507035402 31 81 0.0 0.0 0.00 0.35 0.20 89 1017.8
20260507034903 31 81 0.0 0.0 0.00 0.35 0.20 89 1017.8
20260507034404 31 250 0.0 1.0 0.00 0.35 0.20 88 1017.8
20260507033903 31 226 0.0 0.0 0.00 0.35 0.20 88 1017.9
20260507033403 31 252 0.0 0.0 0.00 0.35 0.20 87 1017.8
20260507032402 31 246 0.0 0.0 0.00 0.35 0.20 87 1017.8
20260507031903 31 279 0.0 0.0 0.00 0.35 0.20 87 1017.6
20260507031403 31 45 0.0 2.0 0.00 0.35 0.20 86 1017.7
20260507030903 31 94 0.0 0.0 0.00 0.35 0.20 85 1017.6
20260507030403 32 84 0.0 1.0 0.00 0.35 0.20 85 1017.5
20260507025903 32 90 0.0 0.0 0.00 0.35 0.20 85 1017.4
20260507024903 32 255 0.0 1.0 0.00 0.35 0.20 83 1017.4
20260507024403 32 221 0.0 3.0 0.00 0.35 0.20 83 1017.4
20260507023903 33 250 0.0 0.0 0.00 0.35 0.20 83 1017.4
20260507022403 33 218 1.0 3.0 0.00 0.35 0.20 80 1017.4
20260507021903 33 229 1.0 3.0 0.00 0.35 0.20 79 1017.4
20260507021404 34 215 1.0 3.0 0.00 0.35 0.20 78 1017.4
20260507020903 34 227 1.0 3.0 0.00 0.35 0.20 77 1017.2
20260507020403 34 222 2.0 3.0 0.00 0.35 0.20 77 1017.2
20260507015903 35 220 2.0 3.0 0.00 0.35 0.20 77 1017.1
20260507015403 35 215 0.0 2.0 0.00 0.35 0.20 76 1017.1
20260507014903 36 248 0.0 2.0 0.00 0.35 0.20 74 1017.2
20260507013903 37 222 2.0 5.0 0.01 0.35 0.20 71 1017.2
20260507013403 37 217 2.0 5.0 0.01 0.35 0.20 71 1017.2
20260507012903 38 223 1.0 5.0 0.01 0.35 0.20 70 1017.1
20260507012403 38 232 0.0 3.0 0.01 0.35 0.20 71 1017.1
20260507011903 38 255 2.0 5.0 0.01 0.35 0.20 69 1017.2
20260507011403 38 230 2.0 6.0 0.01 0.35 0.20 70 1017.1
20260507010903 38 208 3.0 6.0 0.02 0.35 0.20 68 1017.1
20260507010403 38 215 3.0 6.0 0.02 0.35 0.20 69 1017.1
20260507005903 39 207 3.0 7.0 0.02 0.35 0.20 68 1017.0
20260507005403 39 216 1.0 5.0 0.02 0.35 0.20 69 1016.9
20260507004903 38 212 3.0 6.0 0.02 0.36 0.20 68 1016.9
20260507004403 38 210 2.0 5.0 0.02 0.35 0.19 68 1016.9
20260507003903 38 237 2.0 6.0 0.02 0.35 0.19 67 1016.9
20260507002903 40 211 2.0 7.0 0.02 0.35 0.19 64 1016.9
20260507002403 40 240 2.0 5.0 0.03 0.35 0.19 65 1016.8
20260507001903 40 266 1.0 3.0 0.03 0.35 0.19 67 1016.8
20260507001404 39 118 0.0 3.0 0.03 0.35 0.19 68 1016.8
20260507000904 39 230 2.0 5.0 0.02 0.34 0.18 68 1016.9
20260507000405 39 262 2.0 8.0 0.03 0.34 0.18 64 1016.9
20260506235903 40 213 2.0 5.0 0.03 0.34 0.18 65 1016.8
20260506235404 40 213 3.0 6.0 0.03 0.34 0.18 65 1016.8
20260506234403 40 222 1.0 3.0 0.03 0.33 0.17 66 1016.6
20260506233904 39 234 3.0 5.0 0.03 0.33 0.17 67 1016.7
20260506233403 39 226 0.0 6.0 0.04 0.33 0.17 67 1016.7
20260506232903 38 215 2.0 6.0 0.04 0.33 0.17 70 1016.8
20260506232403 37 230 0.0 3.0 0.03 0.32 0.16 71 1016.8
20260506231903 37 231 2.0 3.0 0.04 0.32 0.16 70 1016.9
20260506231403 37 212 2.0 5.0 0.04 0.32 0.16 71 1016.9
20260506230903 37 231 0.0 1.0 0.05 0.32 0.16 71 1016.8
20260506230403 37 221 0.0 1.0 0.04 0.31 0.15 71 1016.8
20260506225903 36 250 0.0 1.0 0.04 0.32 0.15 73 1016.8
20260506225404 36 208 1.0 3.0 0.05 0.32 0.15 71 1016.8
20260506224903 36 77 0.0 2.0 0.05 0.31 0.14 72 1016.7
20260506224404 36 71 1.0 3.0 0.05 0.31 0.14 73 1016.7
20260506223903 36 303 0.0 3.0 0.06 0.31 0.14 75 1016.7
20260506223404 36 88 0.0 3.0 0.06 0.30 0.13 76 1016.8
20260506222903 35 325 0.0 2.0 0.08 0.31 0.13 74 1016.7
20260506222404 35 3 1.0 3.0 0.12 0.31 0.13 76 1016.7
20260506221904 35 14 0.0 2.0 0.12 0.30 0.12 75 1016.9
20260506221403 35 316 0.0 2.0 0.12 0.30 0.12 76 1017.0
20260506220904 35 356 1.0 3.0 0.11 0.29 0.11 76 1016.9
20260506220403 35 340 1.0 3.0 0.11 0.29 0.11 76 1016.9
20260506215903 35 291 0.0 2.0 0.11 0.29 0.11 74 1016.9
20260506215403 35 319 0.0 3.0 0.10 0.29 0.10 73 1016.9
20260506214904 36 300 1.0 5.0 0.09 0.28 0.09 75 1016.9
20260506213904 35 26 1.0 5.0 0.08 0.27 0.08 76 1017.0
20260506213403 35 57 2.0 5.0 0.07 0.26 0.07 76 1017.0
20260506212904 35 57 4.0 8.0 0.05 0.24 0.05 77 1016.9
20260506211903 35 74 5.0 9.0 0.00 0.19 0.00 75 1017.0
20260506211403 36 54 3.0 8.0 0.00 0.19 0.00 78 1017.0
20260506210903 36 338 2.0 6.0 0.00 0.19 0.00 80 1017.2
20260506210404 35 288 2.0 6.0 0.00 0.19 0.00 81 1017.2
20260506205903 34 57 1.0 12.0 0.00 0.19 0.00 80 1017.2
20260506205404 34 79 2.0 6.0 0.00 0.19 0.00 79 1017.1
20260506204904 35 82 2.0 9.0 0.00 0.19 0.00 78 1017.1
20260506204404 35 61 1.0 3.0 0.00 0.19 0.00 83 1017.1
20260506203904 35 13 2.0 6.0 0.00 0.20 0.00 81 1017.2
20260506202904 34 347 1.0 7.0 0.00 0.20 0.00 80 1017.3
20260506202401 34 61 1.0 5.0 0.00 0.20 0.00 84 1017.3
20260506201900 34 291 1.0 8.0 0.00 0.20 0.00 82 1017.2
20260506201401 34 28 2.0 6.0 0.00 0.20 0.00 82 1017.3
20260506200901 34 5 2.0 6.0 0.00 0.20 0.00 84 1017.0
20260506195901 32 70 3.0 10.0 0.00 0.20 0.00 83 1017.1
20260506195401 33 71 3.0 8.0 0.00 0.20 0.00 84 1017.0
20260506194901 33 318 2.0 6.0 0.00 0.20 0.00 83 1017.0
20260506194401 33 61 3.0 6.0 0.00 0.20 0.00 81 1016.9
20260506193901 33 75 2.0 6.0 0.00 0.21 0.00 83 1016.9
20260506193401 33 347 2.0 6.0 0.00 0.21 0.00 83 1016.9
20260506192901 33 59 2.0 9.0 0.00 0.21 0.00 83 1016.9
20260506192401 32 32 2.0 6.0 0.00 0.21 0.00 83 1016.9
20260506191901 33 70 2.0 7.0 0.00 0.21 0.00 83 1016.9
20260506191401 33 55 2.0 7.0 0.00 0.21 0.00 83 1016.9
20260506190401 34 54 1.0 3.0 0.00 0.21 0.00 83 1016.9
20260506185901 34 87 2.0 5.0 0.00 0.22 0.00 83 1016.8
20260506185401 33 47 2.0 5.0 0.00 0.22 0.00 84 1016.8
20260506183901 32 81 1.0 3.0 0.00 0.22 0.00 85 1017.1
20260506183400 32 45 1.0 3.0 0.00 0.22 0.00 84 1017.1
20260506182401 32 8 1.0 5.0 0.00 0.22 0.00 86 1017.2
20260506181901 31 72 2.0 5.0 0.00 0.22 0.00 85 1017.2
20260506181402 31 358 2.0 6.0 0.00 0.23 0.00 86 1017.2
20260506180901 31 114 1.0 5.0 0.00 0.23 0.00 87 1017.3
20260506180401 31 27 1.0 3.0 0.00 0.24 0.00 88 1017.3
20260506175401 31 265 1.0 3.0 0.00 0.25 0.00 88 1017.1
20260506174401 31 290 0.0 0.0 0.00 0.26 0.00 88 1017.0
20260506173901 31 306 0.0 0.0 0.00 0.26 0.00 89 1016.9
20260506173401 31 288 1.0 3.0 0.00 0.26 0.00 88 1016.9
20260506172901 30 257 0.0 0.0 0.00 0.26 0.00 89 1017.0
20260506171902 30 299 0.0 0.0 0.00 0.27 0.00 90 1016.8
20260506171401 30 70 0.0 0.0 0.00 0.27 0.00 91 1016.4
20260506170901 30 355 0.0 0.0 0.00 0.28 0.00 90 1016.5
20260506165901 30 297 0.0 1.0 0.00 0.28 0.00 90 1016.7
20260506165402 30 289 0.0 1.0 0.00 0.28 0.00 90 1016.9
20260506164901 30 350 0.0 1.0 0.00 0.28 0.00 89 1016.9
20260506164402 30 2 0.0 2.0 0.00 0.28 0.00 90 1016.7
20260506163901 30 10 0.0 3.0 0.00 0.28 0.00 89 1016.7
20260506163402 30 82 0.0 3.0 0.00 0.28 0.00 90 1016.6